Skip Page Navigation
NASA JPL Caltech
NASA Logo - Jet Propulsion Laboratory + View the NASA Portal
+ Center for Near-Earth Object Studies
JPL Home Earth Solar System Stars & Galaxies Technology
JPL Solar System Dynamics
BODIES ORBITS EPHEMERIDES TOOLS PHYSICAL DATA DISCOVERY FAQ SITE MAP
JPL Small-Body Database Browser
Search: [ help ]  
434016 (2001 QC262)
Classification: Main-belt Asteroid          SPK-ID: 2434016
Ephemeris | Orbit Diagram | Orbital Elements | Mission Design | Physical Parameters | Discovery Circumstances ]

[ show orbit diagram ]
Orbital Elements at Epoch 2459000.5 (2020-May-31.0) TDB
Reference: JPL 10 (heliocentric ecliptic J2000)
 Element Value Uncertainty (1-sigma)   Units 
e .2624999804048491 8.9274e-08  
a 2.380576033469541 1.3625e-08 au
q 1.755674871331533 2.1992e-07 au
i 12.20353650069939 7.0567e-06 deg
node 185.7852173378447 2.7566e-05 deg
peri 141.9646915648799 3.6607e-05 deg
M 50.27637722074395 1.685e-05 deg
tp 2458813.137364074299
(2019-Nov-25.63736407)
6.2605e-05 TDB
period 1341.595251326547
3.67
1.1517e-05
3.153e-08
d
yr
n .2683372646437426 2.3036e-09 deg/d
Q 3.005477195607549 1.7201e-08 au
  Orbit Determination Parameters
   # obs. used (total)      183  
   data-arc span      6546 days (17.92 yr)  
   first obs. used      2001-08-25  
   last obs. used      2019-07-28  
   planetary ephem.      DE431  
   SB-pert. ephem.      SB431-N16  
   condition code      0  
   norm. resid. RMS      .60499  
   source      ORB  
   producer      Otto Matic  
   solution date      2019-Sep-24 07:34:51  

Additional Information
 Earth MOID = .762759 au 
 Jupiter MOID = 2.44701 au 
 T_jup = 3.462 
[ show covariance matrix ]

Ephemeris | Orbit Diagram | Orbital Elements | Mission Design | Physical Parameters | Discovery Circumstances ]

Physical Parameter Table
Parameter Symbol Value Units Sigma Reference Notes
absolute magnitude H 17.5   n/a MPO477032  

434016 (2001 QC262)          Discovered 2001-Aug-25 by LINEAR at Socorro
Reference: Last Updated: 2015-06-04
Ephemeris | Orbit Diagram | Orbital Elements | Mission Design | Physical Parameters | Discovery Circumstances ]
ABOUT SSD CREDITS/AWARDS PRIVACY/COPYRIGHT GLOSSARY LINKS
FirstGov 2020-Aug-13 03:32 UT
(server date/time)  
NASA Home Page
Site Manager:   Ryan S. Park
Webmaster  Alan B. Chamberlin